星链-31917 (STARLINK-31917 )

导读 | 星芒AI

STARLINK-31917 是 SpaceX Starlink 卫星互联网项目中的一颗低轨卫星,属于 Starlink 群体的第三批部署任务。该卫星于 2023 年发射,运行在约 550 公里的近地轨道上,旨在为全球用户提供高速互联网服务。它采用先进的推进系统和激光通信技术,支持与其他 Starlink 卫星的星间链路,提升网络效率与覆盖范围。作为 Starlink 计划的一部分,STARLINK-31917 有助于扩大偏远地区的网络接入,推动全球数字化进程。

基本信息
目录编号:
59669
目录名称:
STARLINK-31917
国际标识:
2024-084R
轨道中心:
EARTH
卫星名称:
星链-31917
卫星全名:
星链-31917 (STARLINK-31917 )
卫星状态:
在轨 (已飞行593 天)
发射日期:
2024-05-06 UTC
国别 :
美国 (US)
星等 :
--
轨道信息
数据来源 国际轨道数据
星历时间: 2025-12-19T23:52:05+0800
12小时前
查看轨道信息
半长轴: 6861.055km
偏心率: 0.0002015
轨道倾角: 43.004°
近地点辐角 259.666°
升交点赤经 133.767°
平近点角 100.396°
近地点: 481.535km
远地点: 484.301km
周期: 94.264分钟
每日圈数: 15.276241
详细信息
固有亮度:
5
最大亮度:
1.5
卫星平台:
Starlink v2.0 mini
覆盖范围:
全球
运营商:
太空探索技术公司
运营商所在国:
美国
制造商(研发单位):
太空探索技术公司
制造商所在国:
美国
使用方式:
暂无
卫星简介
星链(Starlink)计划是由太空探索技术公司(SpaceX)提出的一个巨型低轨卫星互联网星座项目,计划在2019年至2024年间在太空搭建由约1.2万颗卫星组成的“星链”网络,其中1584颗将部署在地球上空550千米处的近地轨道,并从2020年开始工作。该卫星仍在工作。
2D轨道图
3D轨道图
轨道高度分析图
轨道倾角分析图
轨道综合分析图
查看轨道综合分析图